Weather History for Gainesville, TX

Change the Weather History Date:

Sunday, November 11, 2012

  Actual Average (KDTO) Record (KDTO)
Temperature  
Mean Temperature 52 °F -  
Max Temperature 69 °F 63 °F 82 °F (1999)
Min Temperature 35 °F 44 °F 28 °F (1997)
Degree Days  
Heating Degree Days 13    
Growing Degree Days 2 (Base 50)    
Moisture  
Dew Point 51 °F    
Average Humidity 83    
Maximum Humidity 100    
Minimum Humidity 67    
Precipitation  
Precipitation 0.24 in - - ()
Sea Level Pressure  
Sea Level Pressure 29.98 in    
Wind  
Wind Speed 15 mph (NW)    
Max Wind Speed 24 mph    
Max Gust Speed 37 mph    
Visibility 10 miles    
Events Rain    
Averages and records for this station are not official NWS values.
T = Trace of Precipitation, MM = Missing Value Source: NWS Daily Summary

Daily Weather History Graph

Daily Weather History Graph

Search for Another Location

Airport:

Trip Planner

Search our weather history database for the weather conditions in past years. The results will help you decide how hot, cold, wet, or windy it might be!

Date:

Astronomy

Nov. 11, 2012 Rise Set
Actual Time 6:57 AM CST 5:28 PM CST
Civil Twilight 6:31 AM CST 5:54 PM CST
Nautical Twilight 6:01 AM CST 6:24 PM CST
Astronomical Twilight 5:31 AM CST 6:53 PM CST
Moon 4:18 AM CST (11/11) 3:48 PM CST (11/11)
Length of Visible Light 11h 23m
Length of Day
10h 30m
Waning Crescent, 7% of the Moon is Illuminated
Nov 11
Waning Crescent
Nov 13
New
Nov 20
First Quarter
Nov 28
Full
Dec 6
Last Quarter

Hourly Weather History & Observations

Time (CST) Temp. Windchill Dew Point Humidity Pressure Visibility Wind Dir Wind Speed Gust Speed Precip Events Conditions
12:15 AM 69.8 °F - 60.8 °F 73% 29.80 in 10.0 mi SSE 23.0 mph 29.9 mph N/A   Scattered Clouds
12:35 AM 69.8 °F - 60.8 °F 73% 29.80 in 10.0 mi SSE 23.0 mph 32.2 mph N/A   Overcast
12:55 AM 69.8 °F - 60.8 °F 73% 29.80 in 10.0 mi South 21.9 mph 32.2 mph N/A   Overcast
1:15 AM 69.8 °F - 62.6 °F 78% 29.80 in 10.0 mi SSE 23.0 mph 29.9 mph N/A   Overcast
1:35 AM 69.8 °F - 62.6 °F 78% 29.80 in 10.0 mi SSE 21.9 mph 33.4 mph N/A   Overcast
1:55 AM 69.8 °F - 62.6 °F 78% 29.78 in 10.0 mi SSE 24.2 mph 32.2 mph N/A   Overcast
2:15 AM 69.8 °F - 62.6 °F 78% 29.78 in 10.0 mi SSE 24.2 mph 33.4 mph N/A   Overcast
2:35 AM 69.8 °F - 62.6 °F 78% 29.77 in 10.0 mi SSE 20.7 mph 36.8 mph N/A   Overcast
2:55 AM 69.8 °F - 62.6 °F 78% 29.80 in 10.0 mi South 12.7 mph 26.5 mph N/A   Overcast
3:15 AM 69.8 °F - 62.6 °F 78% 29.79 in 10.0 mi South 18.4 mph 23.0 mph N/A   Overcast
3:35 AM 69.8 °F - 62.6 °F 78% 29.79 in 10.0 mi South 12.7 mph 19.6 mph N/A   Overcast
3:55 AM 69.8 °F - 62.6 °F 78% 29.80 in 10.0 mi South 12.7 mph 21.9 mph N/A   Overcast
4:15 AM 69.8 °F - 62.6 °F 78% 29.81 in 10.0 mi South 12.7 mph 19.6 mph N/A   Overcast
4:35 AM 69.8 °F - 62.6 °F 78% 29.81 in 10.0 mi South 12.7 mph - N/A   Overcast
4:55 AM 69.8 °F - 62.6 °F 78% 29.82 in 10.0 mi South 11.5 mph - N/A   Overcast
5:15 AM 69.8 °F - 62.6 °F 78% 29.82 in 10.0 mi South 12.7 mph 18.4 mph N/A Rain Light Rain
5:35 AM 69.8 °F - 62.6 °F 78% 29.82 in 10.0 mi South 12.7 mph - N/A   Overcast
5:55 AM 68.0 °F - 62.6 °F 83% 29.82 in 10.0 mi SSE 12.7 mph - N/A   Overcast
6:15 AM 68.0 °F - 62.6 °F 83% 29.82 in 10.0 mi SSE 15.0 mph 18.4 mph N/A   Overcast
6:35 AM 66.2 °F - 60.8 °F 83% 29.83 in 10.0 mi SSE 15.0 mph - N/A   Overcast
6:55 AM 66.2 °F - 62.6 °F 88% 29.83 in 10.0 mi SSE 16.1 mph - N/A   Overcast
7:15 AM 66.2 °F - 62.6 °F 88% 29.83 in 10.0 mi SSE 16.1 mph 21.9 mph N/A   Overcast
7:35 AM 66.2 °F - 60.8 °F 83% 29.84 in 10.0 mi SSE 15.0 mph - N/A Rain Light Rain
7:55 AM 66.2 °F - 60.8 °F 83% 29.84 in 10.0 mi SSE 15.0 mph 26.5 mph N/A   Overcast
8:15 AM 66.2 °F - 62.6 °F 88% 29.85 in 10.0 mi South 16.1 mph 24.2 mph N/A   Overcast
8:35 AM 66.2 °F - 62.6 °F 88% 29.85 in 10.0 mi South 17.3 mph 23.0 mph N/A   Overcast
8:55 AM 57.2 °F - 53.6 °F 88% 29.91 in 10.0 mi West 17.3 mph 25.3 mph N/A   Overcast
9:15 AM 53.6 °F - 51.8 °F 94% 29.92 in 7.0 mi NW 16.1 mph 20.7 mph 0.02 in Rain Heavy Rain
9:35 AM 53.6 °F - 51.8 °F 94% 29.92 in 7.0 mi NNW 12.7 mph - 0.06 in Rain Rain
9:55 AM 51.8 °F - 51.8 °F 100% 29.95 in 3.0 mi NNW 13.8 mph - 0.20 in Rain Rain
10:15 AM 51.8 °F - 51.8 °F 100% 29.95 in 10.0 mi NNW 8.1 mph - 0.01 in Rain Rain
10:35 AM 51.8 °F - 51.8 °F 100% 29.95 in 10.0 mi NNW 10.4 mph - 0.02 in Rain Light Rain
10:55 AM 51.8 °F - 51.8 °F 100% 29.95 in 10.0 mi North 8.1 mph - 0.02 in   Overcast
11:15 AM 51.8 °F - 51.8 °F 100% 29.96 in 7.0 mi North 5.8 mph - 0.02 in Rain Light Rain
11:35 AM 51.8 °F - 51.8 °F 100% 29.95 in 10.0 mi North 6.9 mph - 0.02 in Rain Light Rain
11:55 AM 51.8 °F - 50.0 °F 94% 29.95 in 10.0 mi NNW 6.9 mph - 0.02 in   Overcast
12:15 PM 51.8 °F - 50.0 °F 94% 29.95 in 10.0 mi NNW 5.8 mph - N/A   Overcast
12:35 PM 53.6 °F - 50.0 °F 88% 29.96 in 10.0 mi NNW 4.6 mph - N/A   Overcast
12:55 PM 55.4 °F - 51.8 °F 88% 29.95 in 10.0 mi NNW 4.6 mph - N/A   Overcast
1:15 PM 55.4 °F - 51.8 °F 88% 29.96 in 10.0 mi NNW 5.8 mph - N/A   Overcast
1:35 PM 57.2 °F - 51.8 °F 82% 29.95 in 10.0 mi NNW 5.8 mph - N/A   Mostly Cloudy
1:55 PM 57.2 °F - 51.8 °F 82% 29.95 in 10.0 mi North 4.6 mph - N/A   Mostly Cloudy
2:15 PM 57.2 °F - 50.0 °F 77% 29.96 in 10.0 mi North 3.5 mph - N/A   Mostly Cloudy
2:35 PM 59.0 °F - 51.8 °F 77% 29.96 in 10.0 mi NNW 4.6 mph - N/A   Mostly Cloudy
2:55 PM 60.8 °F - 50.0 °F 68% 29.96 in 10.0 mi West 6.9 mph - N/A   Scattered Clouds
3:15 PM 59.0 °F - 50.0 °F 72% 29.98 in 10.0 mi WNW 9.2 mph - N/A   Scattered Clouds
3:35 PM 59.0 °F - 50.0 °F 72% 29.98 in 10.0 mi WNW 8.1 mph - N/A   Scattered Clouds
3:55 PM 59.0 °F - 50.0 °F 72% 29.99 in 10.0 mi WNW 8.1 mph - N/A   Mostly Cloudy
4:15 PM 59.0 °F - 48.2 °F 67% 30.00 in 10.0 mi NNW 9.2 mph - N/A   Scattered Clouds
4:35 PM 53.6 °F - 48.2 °F 82% 30.02 in 10.0 mi North 18.4 mph 24.2 mph N/A   Mostly Cloudy
4:55 PM 50.0 °F - 44.6 °F 82% 30.05 in 10.0 mi NNW 19.6 mph 25.3 mph N/A   Scattered Clouds
5:15 PM 50.0 °F - 44.6 °F 82% 30.07 in 10.0 mi North 12.7 mph 20.7 mph N/A   Scattered Clouds
5:35 PM 46.4 °F 40.7 °F 42.8 °F 87% 30.08 in 10.0 mi North 12.7 mph 19.6 mph N/A   Mostly Cloudy
5:55 PM 46.4 °F 40.7 °F 41.0 °F 81% 30.10 in 10.0 mi North 12.7 mph 19.6 mph N/A   Overcast
6:15 PM 44.6 °F 38.4 °F 39.2 °F 81% 30.11 in 10.0 mi North 12.7 mph - N/A   Mostly Cloudy
6:35 PM 44.6 °F 39.2 °F 39.2 °F 81% 30.13 in 10.0 mi NNW 10.4 mph - N/A   Scattered Clouds
6:55 PM 44.6 °F 38.8 °F 37.4 °F 76% 30.15 in 10.0 mi NNW 11.5 mph 16.1 mph N/A   Scattered Clouds
7:15 PM 44.6 °F 38.4 °F 37.4 °F 76% 30.16 in 10.0 mi NNW 12.7 mph - N/A   Clear
7:35 PM 42.8 °F 35.1 °F 35.6 °F 76% 30.18 in 10.0 mi NNW 16.1 mph 21.9 mph N/A   Clear
7:55 PM 42.8 °F 35.8 °F 35.6 °F 76% 30.20 in 10.0 mi NNW 13.8 mph - N/A   Clear
8:15 PM 39.2 °F 31.6 °F 33.8 °F 81% 30.22 in 10.0 mi NNW 12.7 mph 18.4 mph N/A   Clear
8:35 PM 39.2 °F 30.8 °F 33.8 °F 81% 30.23 in 10.0 mi NNW 15.0 mph - N/A   Clear
8:55 PM 39.2 °F 31.6 °F 32.0 °F 75% 30.24 in 10.0 mi NNW 12.7 mph - N/A   Clear
9:15 PM 37.4 °F 28.9 °F 32.0 °F 81% 30.25 in 10.0 mi NNW 13.8 mph - N/A   Clear
9:35 PM 37.4 °F 30.3 °F 32.0 °F 81% 30.26 in 10.0 mi NNW 10.4 mph 17.3 mph N/A   Clear
9:55 PM 37.4 °F 30.3 °F 32.0 °F 81% 30.27 in 10.0 mi NNW 10.4 mph - N/A   Clear
10:15 PM 35.6 °F 27.1 °F 32.0 °F 87% 30.28 in 10.0 mi NNW 12.7 mph - N/A   Clear
10:35 PM 37.4 °F 29.3 °F 32.0 °F 81% 30.29 in 10.0 mi NNW 12.7 mph 17.3 mph N/A   Clear
10:55 PM 35.6 °F 27.1 °F 32.0 °F 87% 30.30 in 10.0 mi NNW 12.7 mph - N/A   Clear
11:15 PM 35.6 °F 29.2 °F 32.0 °F 87% 30.31 in 10.0 mi NNW 8.1 mph - N/A   Clear
11:35 PM 35.6 °F 29.2 °F 30.2 °F 81% 30.31 in 10.0 mi North 8.1 mph - N/A   Clear